TimeGMT,TemperatureF,Dew PointF,Humidity,Sea Level PressureIn,VisibilityMPH,Wind Direction,Wind SpeedMPH,Gust SpeedMPH,PrecipitationIn,Events,Conditions,WindDirDegrees,DateUTC
12:20 AM,39.2,37.4,93,30.15,6.2,WSW,10.4,-,N/A,,Scattered Clouds,240,2013-01-09 00:20:00
12:50 AM,42.8,39.2,87,30.15,6.2,SW,5.8,-,N/A,Rain,Light Rain,230,2013-01-09 00:50:00
1:20 AM,41.0,39.2,93,30.15,6.2,SSW,3.5,-,N/A,,Mostly Cloudy,210,2013-01-09 01:20:00
1:50 AM,42.8,39.2,87,30.15,6.2,West,5.8,-,N/A,,Overcast,260,2013-01-09 01:50:00
2:20 AM,41.0,39.2,93,30.15,6.2,NNW,2.3,-,N/A,,Scattered Clouds,330,2013-01-09 02:20:00
2:50 AM,39.2,37.4,93,30.15,6.2,Calm,Calm,-,N/A,,Partly Cloudy,0,2013-01-09 02:50:00
3:20 AM,41.0,37.4,87,30.15,6.2,Calm,Calm,-,N/A,,Mostly Cloudy,0,2013-01-09 03:20:00
3:50 AM,39.2,37.4,93,30.15,6.2,WSW,5.8,-,N/A,,Mostly Cloudy,240,2013-01-09 03:50:00
4:20 AM,41.0,39.2,93,30.15,6.2,West,6.9,-,N/A,Rain,Light Rain,270,2013-01-09 04:20:00
4:50 AM,39.2,37.4,93,30.15,6.2,Variable,3.5,-,N/A,,Scattered Clouds,0,2013-01-09 04:50:00
5:20 AM,39.2,37.4,93,30.15,6.2,Calm,Calm,-,N/A,,Mostly Cloudy,0,2013-01-09 05:20:00
5:50 AM,39.2,37.4,93,30.15,6.2,West,4.6,-,N/A,,Mostly Cloudy,280,2013-01-09 05:50:00
6:20 AM,39.2,37.4,93,30.15,6.2,West,4.6,-,N/A,,Scattered Clouds,260,2013-01-09 06:20:00
6:50 AM,39.2,35.6,87,30.15,6.2,WSW,4.6,-,N/A,,Mostly Cloudy,250,2013-01-09 06:50:00
7:20 AM,39.2,37.4,93,30.15,6.2,West,6.9,-,N/A,,Mostly Cloudy,270,2013-01-09 07:20:00
7:50 AM,41.0,37.4,87,30.15,6.2,West,5.8,-,N/A,,Mostly Cloudy,270,2013-01-09 07:50:00
8:20 AM,37.4,33.8,87,30.15,6.2,WSW,6.9,-,N/A,,Scattered Clouds,250,2013-01-09 08:20:00
8:50 AM,41.0,39.2,93,30.15,6.2,West,5.8,-,N/A,,Mostly Cloudy,260,2013-01-09 08:50:00
9:20 AM,41.0,39.2,93,30.15,6.2,NW,2.3,-,N/A,,Mostly Cloudy,310,2013-01-09 09:20:00
9:50 AM,41.0,39.2,93,30.15,6.2,Variable,2.3,-,N/A,,Mostly Cloudy,0,2013-01-09 09:50:00
10:20 AM,42.8,41.0,93,30.15,6.2,WSW,4.6,-,N/A,,Scattered Clouds,250,2013-01-09 10:20:00
10:50 AM,44.6,41.0,87,30.15,6.2,West,4.6,-,N/A,,Scattered Clouds,280,2013-01-09 10:50:00
11:20 AM,46.4,42.8,87,30.15,6.2,West,6.9,-,N/A,,Scattered Clouds,260,2013-01-09 11:20:00
11:50 AM,46.4,41.0,81,30.12,6.2,West,6.9,-,N/A,,Scattered Clouds,260,2013-01-09 11:50:00
12:20 PM,46.4,41.0,81,30.12,6.2,West,6.9,-,N/A,,Scattered Clouds,270,2013-01-09 12:20:00
12:50 PM,46.4,41.0,81,30.12,6.2,WSW,5.8,-,N/A,,Mostly Cloudy,250,2013-01-09 12:50:00
1:20 PM,46.4,41.0,81,30.12,6.2,West,8.1,-,N/A,,Mostly Cloudy,260,2013-01-09 13:20:00
1:50 PM,46.4,41.0,81,30.12,6.2,West,10.4,-,N/A,,Mostly Cloudy,260,2013-01-09 13:50:00
2:20 PM,46.4,41.0,81,30.12,6.2,West,10.4,-,N/A,,Mostly Cloudy,260,2013-01-09 14:20:00
2:50 PM,46.4,41.0,81,30.12,6.2,West,9.2,-,N/A,,Partly Cloudy,270,2013-01-09 14:50:00
3:20 PM,44.6,41.0,87,30.12,6.2,WSW,8.1,-,N/A,,Partly Cloudy,250,2013-01-09 15:20:00
3:50 PM,42.8,39.2,87,30.12,6.2,WSW,9.2,-,N/A,,Partly Cloudy,240,2013-01-09 15:50:00
4:20 PM,41.0,39.2,93,30.12,6.2,SW,5.8,-,N/A,,Partly Cloudy,220,2013-01-09 16:20:00
4:50 PM,41.0,37.4,87,30.09,-9999.0,SSW,4.6,-,N/A,,Clear,210,2013-01-09 16:50:00
5:20 PM,41.0,39.2,93,30.09,-9999.0,WSW,3.5,-,N/A,,Clear,240,2013-01-09 17:20:00
5:50 PM,41.0,39.2,93,30.09,-9999.0,West,6.9,-,N/A,,Clear,260,2013-01-09 17:50:00
6:20 PM,39.2,37.4,93,30.09,-9999.0,SW,5.8,-,N/A,,Clear,230,2013-01-09 18:20:00
6:50 PM,39.2,37.4,93,30.09,-9999.0,WSW,5.8,-,N/A,,Clear,240,2013-01-09 18:50:00
7:20 PM,39.2,37.4,93,30.09,-9999.0,Variable,2.3,-,N/A,,Clear,0,2013-01-09 19:20:00
7:50 PM,41.0,39.2,93,30.09,6.2,Variable,2.3,-,N/A,,Partly Cloudy,0,2013-01-09 19:50:00
8:20 PM,39.2,37.4,93,30.09,6.2,Variable,2.3,-,N/A,,Partly Cloudy,0,2013-01-09 20:20:00
8:50 PM,39.2,37.4,93,30.09,6.2,West,4.6,-,N/A,,Partly Cloudy,260,2013-01-09 20:50:00
9:20 PM,37.4,37.4,100,30.09,-9999.0,West,4.6,-,N/A,,Clear,280,2013-01-09 21:20:00
9:50 PM,37.4,35.6,93,30.06,-9999.0,WSW,4.6,-,N/A,,Clear,250,2013-01-09 21:50:00
10:20 PM,37.4,35.6,93,30.06,-9999.0,Variable,2.3,-,N/A,,Clear,0,2013-01-09 22:20:00
10:50 PM,37.4,35.6,93,30.06,6.2,SW,6.9,-,N/A,,Partly Cloudy,220,2013-01-09 22:50:00
11:20 PM,35.6,35.6,100,30.06,-9999.0,WSW,4.6,-,N/A,,Clear,240,2013-01-09 23:20:00
11:50 PM,35.6,33.8,93,30.06,-9999.0,WSW,5.8,-,N/A,,Clear,250,2013-01-09 23:50:00